Flag for Chile Weather past 2 weeks in Concepción, Chile

Now
64 °F

Sunny.


Feels Like: 64 °F
Forecast: 53 / 66 °F
Wind: 14 mph from Southwest

Location: Concepcion Airport

Current Time: Oct 21, 2014 at 2:44:08 PM

Latest Report: Oct 21, 2014 at 2:00 PM


Visibility: 10 mi

Pressure: 30.01 "Hg

Humidity: 73%

Dew point: 55 °F

Location of ConcepciónLocation

Historic Weather in Concepción — Graph

°F

Concepción temperature yesterday

Maximum temperature yesterday: 68 °F (at 1:00 PM)
Minimum temperature yesterday: 52 °F (at 4:00 AM)
Average temperature yesterday: 59 °F

Past Weeks' High & Low Weather Summary

 TemperatureHumidityPressure
High70 °F (Oct 12, 2:00 PM)100% (Oct 15, 2:00 AM)30.24 "Hg (Oct 15, 2:00 AM)
Low41 °F (Oct 9, 7:00 AM)29% (Oct 12, 2:00 PM)29.92 "Hg (Oct 14, 11:00 AM)
Average56 °F73%30.08 "Hg
* Reported Oct 6 1:00 PM — Oct 21 1:00 PM, Concepción, Weather by CustomWeather, © 2014

Note: Actual official high and low records may vary slightly from our data, if they occured in-between our weather recording intervals... More about our weather records

Advertising

Concepción weather history for previous 24 hours

 ConditionsComfort  
Time TempWeatherWind HumidityBarometerVisibility
1:00 PM
Oct 21
63 °FSunny.13 mph77%30.01 "Hg10 mi
12:00 PM64 °FSunny.14 mph68%30.01 "Hg10 mi
11:00 AM63 °FPassing clouds.7 mph77%29.98 "HgN/A
10:00 AM61 °FPassing clouds.3 mph83%29.98 "HgN/A
9:00 AM57 °FPartly sunny.9 mph88%29.98 "HgN/A
8:00 AM57 °FFog.10 mph94%29.98 "Hg5 mi
7:00 AM55 °FFog.8 mph100%29.95 "Hg5 mi
6:00 AM55 °FFog.7 mph100%29.95 "Hg4 mi
5:00 AM55 °FFog.7 mph100%29.95 "Hg1 mi
4:00 AM55 °FFog.6 mph100%29.98 "Hg3 mi
3:00 AM55 °FMostly cloudy.7 mph100%29.98 "HgN/A
2:00 AM57 °FLow clouds.5 mph94%30.01 "HgN/A
1:00 AM57 °FLow clouds.9 mph94%30.01 "HgN/A
12:00 AM57 °FPassing clouds.5 mph94%30.04 "HgN/A
11:00 PM
Oct 20
57 °FPassing clouds.5 mph94%30.04 "HgN/A
10:00 PM57 °FLow clouds.8 mph94%30.04 "HgN/A
9:00 PM59 °FPassing clouds.9 mph88%30.04 "HgN/A
8:00 PM59 °FPartly sunny.9 mph88%30.04 "HgN/A
7:00 PM61 °FScattered clouds.13 mph83%30.04 "HgN/A
6:00 PM63 °FScattered clouds.12 mph77%30.04 "HgN/A
5:00 PM64 °FSunny.12 mph73%30.07 "Hg10 mi
4:00 PM66 °FPassing clouds.9 mph68%30.07 "HgN/A
3:00 PM66 °FPassing clouds.9 mph68%30.07 "HgN/A
2:00 PM68 °FScattered clouds.9 mph60%30.07 "HgN/A
Weather by CustomWeather, © 2014

See weather overviewHow to use our weather pages